User: anonymous   Login
Location: Caltech
(34.1382°N, 118.1253°W)
Time: 23:19:51
(UTC-07:00)
Language:

Cosmos 1025 Rocket - Orbit

View from above orbital plane
View from above orbital plane
View from above satellite
View from above satellite

Ground track
Ground track

The orbit data is extracted from the following two-line orbital elements,

1 10974U 78067B   15115.15625043  .00000707  00000-0  76064-4 0  9999
2 10974 082.4842 191.6095 0018881 063.7453 296.5701 14.86956553991041
Epoch (UTC): 25 April 2015 03:45:00
Eccentricity: 0.0018881
inclination: 82.4842°
perigee height: 594 km
apogee height: 620 km
right ascension of ascending node: 191.6095°
argument of perigee: 63.7453°
revolutions per day: 14.86956553
mean anomaly at epoch: 296.5701°
orbit number at epoch: 99104

The dashed part of the orbit path shows where the satellite is in the earth's shadow,  

DLR